CAPE
780 803 878 946 904 974 979 1105 865 577 414 240 69 0 37 0 0 0 0 70 39 28 0 0 0 0 10 8 221 12 136 0 0 0 0 1 3 3 0 0 0 20 138 1 0 148 0 0 0 0 2 110 18 0 6 30 74 1 7 23 41 0 0 0 0 0 6 18 0 14 90 106 126 157 76 266 376 446 383 308 261 378 423 345 377
760 792 849 900 822 985 1046 1191 840 568 297 272 5 0 0 0 0 0 64 30 19 2 0 20 0 0 0 0 0 90 130 1 0 0 7 18 13 19 18 0 0 0 202 78 42 2 1 0 0 0 0 13 28 0 2 18 0 0 0 0 1 1 6 6 1 0 1 60 102 114 4 30 162 242 210 215 272 284 190 152 80 370 372 410 429
788 739 794 831 799 1040 1132 1076 883 735 382 383 154 216 11 0 0 0 0 0 26 82 5 34 25 48 5 0 0 0 0 4 0 106 155 2 0 0 43 0 0 9 10 336 103 21 0 0 1 0 0 62 0 0 0 0 0 0 0 3 6 0 2 28 12 0 77 1 0 9 115 65 125 235 188 144 155 134 98 223 273 275 314 298 332
879 788 723 735 774 1078 1045 1051 868 686 332 402 450 163 8 2 0 4 32 0 0 184 69 1 90 86 76 29 0 0 53 342 1 0 0 1 14 0 20 18 6 2 2 60 1 0 0 0 0 0 0 3 0 0 0 0 0 0 0 30 1 12 1 11 40 4 33 1 86 76 178 204 149 185 176 165 64 66 124 195 238 264 225 273 247
860 836 676 730 797 1050 1001 893 872 731 431 478 429 160 124 0 0 13 2 0 0 296 37 122 115 10 12 20 77 0 0 0 0 0 114 525 32 7 23 13 2 0 1 1 83 0 0 0 0 0 0 0 0 124 126 135 126 98 62 76 126 39 23 94 4 55 272 393 0 177 52 184 135 275 173 0 18 135 143 279 406 350 426 394 438
779 697 645 709 825 1026 929 858 827 847 594 629 462 307 320 116 26 202 60 0 0 5 34 21 163 92 78 156 99 0 0 0 0 0 0 1 29 47 0 0 0 0 0 0 8 31 0 0 0 3 7 208 181 158 152 139 147 155 61 200 194 191 20 2 110 71 271 382 429 325 14 66 354 330 266 137 4 14 141 408 478 389 411 343 345
779 658 474 670 800 1005 907 833 898 922 776 570 492 468 445 79 1 31 50 129 1 0 21 495 43 17 4 49 146 0 0 0 0 0 0 0 1 54 3 0 0 0 0 0 0 27 0 0 0 2 17 32 224 3 75 156 160 166 172 266 374 246 88 39 38 35 213 290 331 372 441 343 390 445 344 187 198 240 397 455 486 517 449 430 348
827 693 504 712 859 959 910 837 889 926 855 661 570 538 339 4 0 70 39 169 61 1 0 385 32 3 0 0 0 0 0 0 72 4 0 34 18 66 0 0 0 0 0 0 0 18 64 0 0 191 180 181 164 15 17 157 183 214 262 316 352 361 290 114 42 4 161 287 419 469 406 374 355 347 392 302 125 253 237 335 384 412 454 417 394
815 801 690 756 912 878 852 832 869 867 830 700 651 589 242 0 0 35 88 168 26 28 0 96 154 0 0 0 16 0 0 0 36 312 97 24 0 0 0 0 0 0 0 0 0 1 97 26 1 11 28 87 223 9 9 7 16 238 287 291 258 261 304 247 210 85 188 256 432 464 455 427 384 392 441 422 327 206 219 262 244 300 360 348 308
718 818 886 847 910 914 849 825 842 830 765 620 657 516 274 0 0 64 175 0 0 10 10 0 329 80 0 0 0 0 8 4 0 0 0 0 0 0 0 0 0 0 0 0 0 0 0 33 16 36 92 234 279 12 4 3 7 117 258 276 287 302 291 268 261 257 242 219 258 318 355 367 365 361 380 303 327 278 75 46 228 251 259 225 216
786 763 864 952 944 933 832 782 788 740 668 597 595 404 299 18 0 28 72 0 0 4 20 0 2 0 0 0 0 0 0 0 0 0 91 60 29 20 0 0 0 0 0 0 0 0 1 117 48 134 135 272 121 36 32 4 2 0 0 116 218 250 264 274 245 252 260 283 246 231 275 280 273 298 319 340 338 317 234 186 203 204 166 175 162
859 824 815 888 923 916 754 715 770 753 704 642 579 457 303 0 0 13 8 0 0 0 45 0 23 0 0 0 0 0 0 0 0 0 47 54 28 12 4 1 0 0 0 0 0 0 0 0 91 38 149 49 52 16 11 1 0 0 0 0 0 0 0 163 241 255 220 0 122 155 204 242 269 293 296 357 404 373 321 253 240 219 170 110 181
762 786 750 695 770 884 745 626 680 726 759 694 606 534 414 115 0 6 7 0 0 2 32 2 0 0 0 0 0 0 0 0 0 0 0 0 0 1 2 2 0 0 0 0 0 0 0 1 18 111 163 139 103 6 2 0 0 0 0 0 0 0 0 0 0 0 210 221 161 0 8 143 226 260 283 349 374 367 335 342 326 333 230 168 171
705 705 606 473 546 746 736 564 602 661 748 750 674 579 512 365 0 2 0 0 0 5 20 0 0 0 0 0 0 0 0 0 0 0 0 0 0 0 0 0 0 0 0 0 0 0 0 25 26 55 59 43 118 57 10 9 2 0 0 0 0 0 0 0 0 0 162 227 33 0 0 0 22 204 288 357 400 405 374 385 369 298 218 238 203
698 683 620 517 535 679 716 562 565 673 799 778 712 618 578 565 0 20 0 0 0 1 8 3 0 0 0 0 0 0 0 0 0 0 0 0 0 0 0 0 0 0 0 0 0 0 1 10 52 81 126 68 24 0 0 0 0 0 0 0 0 0 0 0 0 0 0 0 0 0 0 0 0 170 257 337 381 410 414 391 323 282 216 150 72
728 690 620 539 540 615 702 560 567 808 844 804 755 696 684 677 466 0 0 0 0 11 0 1 0 0 0 0 1 82 17 0 0 0 0 0 0 0 0 0 0 0 0 0 0 0 0 7 36 43 28 7 2 0 0 0 0 0 0 0 0 0 0 0 0 0 0 0 0 0 0 0 0 97 222 252 310 333 370 370 388 251 204 175 139
770 701 672 639 556 512 520 484 578 828 884 908 829 800 770 737 715 84 0 0 0 0 0 0 0 0 0 0 0 0 0 0 0 0 0 0 0 0 0 0 0 0 0 0 0 0 0 0 0 9 20 1 0 0 0 0 0 0 0 0 0 0 0 0 0 0 0 0 0 0 0 0 0 45 188 226 238 259 394 407 398 409 279 192 18
664 619 606 622 583 458 398 444 656 861 884 960 951 890 838 775 779 281 0 0 0 0 0 0 0 0 0 0 0 0 0 0 0 0 0 0 0 0 0 0 0 0 0 0 0 0 15 239 0 9 0 0 0 0 0 0 0 0 0 0 0 0 0 0 0 0 0 0 0 0 0 0 0 0 41 169 182 166 203 259 399 424 436 317 86
469 469 458 474 508 507 451 466 610 726 816 935 971 953 900 849 816 687 0 0 0 0 0 0 0 0 0 0 0 0 0 0 0 0 0 0 0 0 0 0 0 0 0 0 0 0 3 53 44 0 0 0 0 0 0 0 0 0 0 0 0 0 0 0 0 0 0 0 0 0 0 0 0 0 0 0 96 0 0 0 257 402 418 384 155
352 316 77 168 358 411 427 461 670 822 895 930 969 944 923 897 826 816 284 0 0 0 0 0 0 0 0 4 4 0 0 0 0 0 0 0 0 0 0 0 0 0 0 1 0 0 23 25 0 0 0 0 0 0 0 0 0 0 0 0 0 0 0 0 0 0 0 0 0 0 0 0 0 0 0 0 0 0 0 0 0 348 370 258 0
360 296 276 205 9 9 169 418 637 835 947 982 983 964 950 908 863 854 788 69 0 0 0 0 0 0 0 3 1 0 0 0 0 0 0 0 0 0 0 0 0 0 0 0 0 0 25 16 1 0 0 0 0 0 0 0 0 0 0 0 0 0 0 0 0 0 0 0 0 0 0 0 0 0 0 0 0 0 0 0 0 132 77 0 0
361 316 282 322 333 317 304 398 620 820 951 1002 1002 989 966 950 923 955 898 446 0 0 0 0 0 0 0 0 0 0 0 0 0 0 0 0 0 0 0 0 0 0 0 0 0 0 0 0 0 0 0 0 0 0 0 0 0 0 0 0 0 0 0 0 0 0 0 0 0 0 0 0 0 0 0 0 0 0 0 0 0 0 0 0 0
298 282 294 322 378 392 388 440 621 823 949 997 1016 1023 1021 1024 1017 1014 857 511 0 0 0 0 0 0 0 0 0 0 0 0 0 0 0 0 0 0 0 0 0 0 0 0 0 0 0 0 0 0 0 0 0 0 0 0 0 0 0 0 0 0 0 0 0 0 0 0 0 0 0 0 0 0 0 0 0 0 0 0 0 0 0 0 0
0 0 0 312 371 417 452 558 681 839 970 1044 1073 1082 1086 1100 1087 995 805 513 147 0 0 0 0 0 0 0 0 0 0 0 0 0 0 0 0 0 0 0 0 0 0 0 0 0 0 0 0 0 0 0 0 0 0 0 0 0 0 0 0 0 0 0 0 0 0 0 0 0 0 0 0 0 0 0 0 0 0 0 0 0 0 0 0
0 0 0 8 122 396 588 717 768 860 946 1038 1109 1127 1147 1132 1061 954 758 534 279 116 0 0 0 0 0 0 0 0 0 0 0 0 0 0 0 0 0 0 0 0 0 0 0 0 0 0 0 0 0 0 0 0 0 0 0 0 0 0 0 0 0 0 0 0 0 0 0 0 0 0 0 0 0 0 0 0 0 0 0 0 0 0 0
40 1 0 63 253 496 652 800 850 899 972 1044 1111 1138 1133 1106 1040 907 738 542 322 288 61 0 0 0 0 0 0 0 0 0 0 0 0 0 0 0 0 0 0 0 0 0 0 0 0 0 0 0 0 0 0 0 0 0 0 0 0 0 0 0 0 0 0 0 0 0 0 0 0 0 0 0 0 0 0 0 0 0 0 0 0 0 0
18 73 16 92 497 605 724 843 916 956 1047 1124 1177 1194 1168 1079 950 814 701 530 372 364 358 0 0 0 0 0 0 0 0 0 0 0 0 0 0 0 0 0 0 0 0 0 0 0 0 0 0 0 0 0 0 0 0 0 0 0 0 0 0 0 0 0 0 0 0 0 0 0 0 0 0 0 0 0 0 0 0 0 0 0 0 0 0
2 221 352 324 418 652 792 885 989 1079 1153 1195 1162 1103 1028 911 836 753 648 495 440 446 425 224 0 0 0 0 0 0 0 0 0 0 0 0 0 0 0 0 0 0 0 0 0 0 0 0 0 0 0 0 0 0 0 0 0 0 0 0 0 0 0 0 0 0 0 0 0 0 0 0 0 0 0 0 0 0 0 0 0 0 0 0 0
0 4 0 374 433 536 724 880 995 1047 1038 989 913 866 810 762 696 643 550 484 475 447 363 130 0 0 0 0 0 0 0 0 0 0 0 0 0 0 0 0 0 0 0 0 0 0 0 0 0 0 0 0 0 0 0 0 0 0 0 0 0 0 0 0 0 0 0 0 0 0 0 0 0 0 0 0 0 0 0 0 0 0 0 0 0
83 226 327 274 32 362 664 797 898 960 983 974 953 888 812 723 625 558 517 500 462 410 306 261 179 0 0 0 0 0 0 0 0 0 0 0 0 0 0 0 0 0 0 0 0 0 0 0 0 0 0 0 0 0 0 0 0 0 0 0 0 0 0 0 0 0 0 0 0 0 0 0 0 0 0 0 0 0 0 0 0 0 0 0 0
261 341 535 549 405 274 473 728 843 928 940 946 923 880 819 740 646 561 540 496 389 340 307 290 270 201 0 0 0 0 0 0 0 0 0 0 0 0 0 0 0 0 0 0 0 0 0 0 0 0 0 0 0 0 0 0 0 0 0 0 0 0 0 0 0 0 0 0 0 0 0 0 0 0 0 0 0 0 0 0 0 0 0 0 0
255 233 237 505 666 564 410 608 824 924 967 1000 983 944 856 734 646 572 480 397 287 246 243 247 235 171 23 0 0 0 0 0 0 0 0 0 0 0 0 0 0 0 0 0 0 0 0 0 0 0 0 0 0 0 0 0 0 0 0 0 0 0 0 0 0 0 0 0 0 0 0 0 0 0 0 0 0 0 0 0 0 0 0 0 0
147 134 170 231 474 554 601 507 636 830 897 933 942 921 830 688 608 542 393 250 162 172 192 206 190 150 81 3 0 0 0 0 0 0 0 0 0 0 0 0 0 0 0 0 0 0 0 0 0 0 0 0 0 0 0 0 0 0 0 0 0 0 0 0 0 0 0 0 0 0 0 0 0 0 0 0 0 0 0 0 0 0 0 0 0
52 316 198 131 559 729 739 642 544 521 702 817 846 850 791 687 564 483 414 334 204 0 118 144 157 141 85 70 49 8 0 0 0 0 0 0 0 0 0 0 0 0 0 0 0 0 0 0 0 0 0 0 0 0 0 0 0 0 0 0 0 0 0 0 0 0 0 0 0 0 0 0 0 0 0 0 0 0 0 0 0 0 0 0 0
13 110 270 172 384 418 905 911 750 646 563 516 628 646 645 625 585 540 510 454 311 142 0 88 138 131 98 93 89 80 69 0 0 0 0 0 0 0 0 0 0 0 0 0 0 0 0 0 0 0 0 0 0 0 0 0 0 0 0 0 0 0 0 0 0 0 0 0 0 0 0 0 0 0 0 0 0 0 0 0 0 0 0 0 0
3 56 38 214 267 417 613 776 998 1008 873 758 682 521 454 455 412 338 365 324 226 36 0 23 124 116 108 112 109 108 114 90 0 0 0 0 0 0 0 0 0 0 0 0 0 0 0 0 0 0 0 0 0 0 0 0 0 0 0 0 0 0 0 0 0 0 0 0 0 0 0 0 0 0 0 0 0 0 0 0 0 0 0 0 0
4 145 176 236 360 344 190 520 790 982 1043 942 694 702 759 642 567 499 409 245 115 0 0 0 103 105 122 125 131 136 138 128 105 0 0 2 0 0 0 0 0 0 0 0 0 0 0 0 0 0 0 0 0 0 0 0 0 0 0 0 0 0 0 0 0 0 0 0 0 0 0 0 0 0 0 0 0 0 0 0 0 0 0 0 0
6 175 242 520 563 434 322 367 662 896 1058 1130 1046 980 978 964 796 616 436 343 246 145 33 0 15 22 115 135 150 155 166 148 137 99 0 2 2 0 0 0 0 0 0 0 0 0 0 0 0 0 0 0 0 0 0 0 0 0 0 0 0 0 0 0 0 0 0 0 0 0 0 0 0 0 0 0 0 0 0 0 0 0 0 0 0
1 1 198 219 530 508 393 382 517 653 804 915 939 1024 1008 950 928 822 568 350 236 202 166 56 0 0 8 127 148 168 175 202 213 181 36 1 1 1 0 0 0 0 0 0 0 0 0 0 0 0 0 0 0 0 0 0 0 0 0 0 0 0 0 0 0 0 0 0 0 0 0 0 0 0 0 0 0 0 0 0 0 0 0 0 0
7 0 0 0 64 550 538 504 461 586 594 583 747 813 786 832 875 779 517 367 255 202 177 160 131 94 98 127 167 186 191 214 256 262 182 34 2 1 0 0 0 0 0 0 0 0 0 0 0 0 0 0 0 0 0 0 0 0 0 0 0 0 0 0 0 0 0 0 0 0 0 0 0 0 0 0 0 0 0 0 0 0 0 0 0
2 0 0 0 0 60 282 345 347 534 555 577 664 701 715 696 724 669 560 447 320 211 78 140 135 130 131 164 186 184 207 253 278 292 228 127 78 0 2 2 0 0 0 0 0 0 0 0 0 0 0 0 0 0 0 0 0 0 0 0 0 0 0 0 0 0 0 0 0 0 0 0 0 0 0 0 0 0 0 0 0 0 0 0 0
4 0 0 0 0 0 0 0 32 526 461 473 501 555 586 603 617 628 635 580 488 290 176 146 151 31 157 147 136 171 202 240 282 288 240 172 131 108 0 0 2 0 0 0 0 0 0 0 0 0 0 0 0 0 0 0 0 0 0 0 0 0 0 0 0 0 0 0 0 0 0 0 0 0 0 0 0 0 0 0 0 0 0 0 0
8 9 5 0 0 0 0 0 0 94 531 438 380 353 421 436 447 490 486 515 497 353 223 197 223 191 0 0 1 21 154 184 222 228 242 205 176 151 110 0 0 0 3 0 0 0 0 0 0 0 0 0 0 0 0 0 0 0 0 0 0 0 0 0 0 0 0 0 0 0 0 0 0 0 0 0 0 0 0 0 0 0 0 0 0
0 11 19 7 3 0 0 0 0 0 185 560 478 381 347 337 341 349 342 330 328 278 40 0 46 228 195 35 0 0 12 158 185 196 212 202 177 166 135 0 0 0 2 0 0 0 0 0 0 0 0 0 0 0 0 0 0 0 0 0 0 0 0 0 0 0 0 0 0 0 0 0 0 0 0 0 0 0 0 0 0 0 0 0 0
0 0 0 0 0 0 0 0 0 0 0 260 494 454 368 342 354 327 329 325 291 289 235 222 276 289 208 0 190 97 23 122 146 163 182 175 161 155 141 0 0 0 0 0 0 0 0 0 0 0 0 0 0 0 0 0 0 0 0 0 0 0 0 0 0 0 0 0 0 0 0 0 0 0 0 0 0 0 0 0 0 0 0 0 0
0 0 0 0 0 0 0 0 0 0 0 0 349 494 394 340 329 337 305 308 335 394 449 422 338 309 300 210 175 71 0 1 0 110 146 129 129 141 142 119 0 0 0 0 0 0 0 0 0 0 0 0 0 0 0 0 0 0 0 0 0 0 0 0 0 0 0 0 0 0 0 0 0 0 0 0 0 0 0 0 0 0 0 0 0
0 0 0 0 0 0 0 0 0 78 82 0 0 284 462 349 273 226 235 266 295 0 380 417 398 412 388 320 264 170 60 84 87 109 150 153 149 146 139 94 0 0 0 0 0 0 0 0 0 0 0 0 0 0 0 0 0 0 0 0 0 0 0 0 0 0 0 0 0 0 0 0 0 0 0 0 0 0 0 0 0 0 0 0 0
0 0 0 0 0 0 0 0 0 79 97 93 90 0 104 379 270 0 0 0 115 303 337 385 396 392 369 314 281 213 84 49 157 91 0 52 152 150 63 0 0 0 0 0 0 0 0 0 0 0 0 0 0 0 0 0 0 0 0 0 0 0 0 0 0 0 0 0 0 0 0 0 0 0 0 0 0 0 0 0 0 0 0 0 0
0 0 0 0 0 0 0 0 0 25 84 95 102 0 0 0 206 169 2 0 0 240 295 366 374 368 353 314 274 221 181 184 195 179 52 6 0 0 0 0 0 0 0 0 0 0 0 0 0 0 0 0 0 0 0 0 0 0 0 0 0 0 0 0 0 0 0 0 0 0 0 0 0 0 0 0 0 0 0 0 0 0 0 0 0
0 0 0 0 0 0 0 0 0 0 6 67 68 108 15 0 75 42 0 0 0 0 324 374 383 347 333 296 264 245 224 216 205 186 169 167 158 142 48 0 0 0 0 0 0 0 0 0 0 0 0 0 0 0 0 0 0 0 0 0 0 0 0 0 0 0 0 0 0 0 0 0 0 0 0 0 0 0 0 0 0 0 0 0 0
0 0 0 0 0 0 0 0 0 0 0 4 45 69 100 100 110 100 0 0 0 0 0 299 323 310 270 22 83 0 0 143 181 173 173 159 156 140 125 0 0 0 0 0 0 0 0 0 0 0 0 0 0 0 0 0 0 0 0 0 0 0 0 0 0 0 0 0 0 0 0 0 0 0 0 0 0 0 0 0 0 0 0 0 0
Wind_Speed
11 14 13 10 8 6 6 7 8 11 12 11 nan nan nan nan nan nan nan nan nan nan nan nan nan nan nan nan 7 nan 7 nan nan nan nan nan nan nan nan nan nan nan 12 nan nan 11 nan nan nan nan nan 17 nan nan nan nan nan nan nan nan nan nan nan nan nan nan nan nan nan nan nan 25 27 27 nan 27 28 26 25 25 23 25 25 23 20
13 12 12 12 9 6 6 6 8 12 11 12 nan nan nan nan nan nan nan nan nan nan nan nan nan nan nan nan nan nan 10 nan nan nan nan nan nan nan nan nan nan nan 10 nan nan nan nan nan nan nan nan nan nan nan nan nan nan nan nan nan nan nan nan nan nan nan nan nan 21 21 nan nan 26 29 32 31 29 25 25 27 nan 28 27 25 22
12 11 11 12 12 9 8 7 7 10 11 11 9 9 nan nan nan nan nan nan nan nan nan nan nan nan nan nan nan nan nan nan nan 13 12 nan nan nan nan nan nan nan nan 11 12 nan nan nan nan nan nan nan nan nan nan nan nan nan nan nan nan nan nan nan nan nan nan nan nan nan 25 nan 24 28 28 32 30 27 nan 30 29 29 30 28 26
16 13 11 10 11 11 12 9 7 8 9 10 9 9 nan nan nan nan nan nan nan 12 nan nan nan nan nan nan nan nan nan 13 nan nan nan nan nan nan nan nan nan nan nan nan nan nan nan nan nan nan nan nan nan nan nan nan nan nan nan nan nan nan nan nan nan nan nan nan nan nan 25 28 26 27 30 28 nan nan 32 32 31 31 30 30 30
17 13 11 10 11 11 12 10 8 7 7 8 9 10 12 nan nan nan nan nan nan 12 nan 10 11 nan nan nan nan nan nan nan nan nan 9 8 nan nan nan nan nan nan nan nan nan nan nan nan nan nan nan nan nan 19 18 17 17 nan nan nan 26 nan nan nan nan nan 27 26 nan 30 nan 30 27 27 31 nan nan 32 33 34 35 33 32 31 31
17 15 11 10 10 11 11 12 9 6 6 6 8 10 11 9 nan 9 nan nan nan nan nan nan 12 nan nan 12 nan nan nan nan nan nan nan nan nan nan nan nan nan nan nan nan nan nan nan nan nan nan nan 18 19 19 19 18 18 18 nan 20 24 25 nan nan 28 nan 28 29 31 30 nan nan 29 29 33 31 nan nan 33 36 35 32 32 33 33
12 10 8 7 5 7 8 10 9 8 6 8 8 9 9 nan nan nan nan 10 nan nan nan 15 nan nan nan nan 11 nan nan nan nan nan nan nan nan nan nan nan nan nan nan nan nan nan nan nan nan nan nan nan 19 nan nan 19 18 18 18 20 21 23 nan nan nan nan 28 30 32 33 35 34 33 35 34 34 34 32 34 34 36 38 36 34 35
18 13 8 6 3 1 3 6 8 7 8 8 6 7 8 nan nan nan nan 10 nan nan nan 14 nan nan nan nan nan nan nan nan nan nan nan nan nan nan nan nan nan nan nan nan nan nan nan nan nan 19 20 20 21 nan nan 20 21 20 21 21 22 24 26 29 nan nan 30 29 30 34 36 37 36 37 36 34 34 34 35 37 38 38 37 36 36
20 17 12 9 7 2 2 4 5 7 6 4 3 5 7 nan nan nan nan 10 nan nan nan nan 12 nan nan nan nan nan nan nan nan 12 nan nan nan nan nan nan nan nan nan nan nan nan nan nan nan nan nan nan 21 nan nan nan nan 23 22 23 24 25 26 26 29 nan 31 30 31 34 36 37 38 38 38 38 36 36 34 35 37 36 38 37 36
19 19 17 14 10 6 2 2 4 4 4 3 4 6 6 nan nan nan 8 nan nan nan nan nan 12 nan nan nan nan nan nan nan nan nan nan nan nan nan nan nan nan nan nan nan nan nan nan nan nan nan nan 20 21 nan nan nan nan 23 23 24 25 27 27 28 30 30 31 31 31 31 33 34 37 37 37 38 39 37 nan nan 34 35 36 34 35
18 18 16 14 11 9 4 3 4 4 4 3 2 3 5 nan nan nan nan nan nan nan nan nan nan nan nan nan nan nan nan nan nan nan nan nan nan nan nan nan nan nan nan nan nan nan nan 19 nan 20 20 20 20 nan nan nan nan nan nan 25 26 27 28 29 31 31 32 33 33 33 33 32 32 33 32 34 34 35 38 37 35 34 35 36 32
17 17 16 13 10 9 7 7 5 3 1 1 1 3 4 nan nan nan nan nan nan nan nan nan nan nan nan nan nan nan nan nan nan nan nan nan nan nan nan nan nan nan nan nan nan nan nan nan nan nan 20 nan nan nan nan nan nan nan nan nan nan nan nan 31 31 33 32 nan 33 32 31 32 34 33 30 31 33 32 35 35 34 33 33 31 29
17 17 16 15 14 12 10 9 5 3 4 4 4 4 5 6 nan nan nan nan nan nan nan nan nan nan nan nan nan nan nan nan nan nan nan nan nan nan nan nan nan nan nan nan nan nan nan nan nan 20 19 19 20 nan nan nan nan nan nan nan nan nan nan nan nan nan 33 34 32 nan nan 31 32 30 30 30 30 31 31 32 28 29 31 28 26
17 16 16 16 14 11 10 9 6 5 5 7 6 5 6 7 nan nan nan nan nan nan nan nan nan nan nan nan nan nan nan nan nan nan nan nan nan nan nan nan nan nan nan nan nan nan nan nan nan nan nan nan 20 nan nan nan nan nan nan nan nan nan nan nan nan nan 34 34 nan nan nan nan nan 27 27 28 26 27 28 29 29 28 27 28 26
15 15 17 16 14 11 10 9 7 6 7 8 8 8 8 9 nan nan nan nan nan nan nan nan nan nan nan nan nan nan nan nan nan nan nan nan nan nan nan nan nan nan nan nan nan nan nan nan nan nan 18 nan nan nan nan nan nan nan nan nan nan nan nan nan nan nan nan nan nan nan nan nan nan 25 25 24 23 23 24 25 28 30 28 28 nan
16 15 15 15 13 10 9 8 8 7 9 9 11 11 11 12 12 nan nan nan nan nan nan nan nan nan nan nan nan nan nan nan nan nan nan nan nan nan nan nan nan nan nan nan nan nan nan nan nan nan nan nan nan nan nan nan nan nan nan nan nan nan nan nan nan nan nan nan nan nan nan nan nan nan 23 22 22 21 22 23 24 27 31 29 27
18 17 17 15 12 10 10 9 9 9 10 12 13 14 15 14 14 nan nan nan nan nan nan nan nan nan nan nan nan nan nan nan nan nan nan nan nan nan nan nan nan nan nan nan nan nan nan nan nan nan nan nan nan nan nan nan nan nan nan nan nan nan nan nan nan nan nan nan nan nan nan nan nan nan 24 24 22 22 23 22 21 24 27 31 nan
19 17 16 16 15 13 11 10 10 11 12 13 14 14 15 17 17 17 nan nan nan nan nan nan nan nan nan nan nan nan nan nan nan nan nan nan nan nan nan nan nan nan nan nan nan nan nan 16 nan nan nan nan nan nan nan nan nan nan nan nan nan nan nan nan nan nan nan nan nan nan nan nan nan nan nan 21 22 21 22 22 23 22 24 27 nan
16 17 16 16 17 16 15 14 13 13 14 15 15 15 16 16 17 18 nan nan nan nan nan nan nan nan nan nan nan nan nan nan nan nan nan nan nan nan nan nan nan nan nan nan nan nan nan nan nan nan nan nan nan nan nan nan nan nan nan nan nan nan nan nan nan nan nan nan nan nan nan nan nan nan nan nan nan nan nan nan 21 22 23 24 27
17 17 nan 18 19 19 19 18 17 17 17 17 18 17 18 18 19 18 18 nan nan nan nan nan nan nan nan nan nan nan nan nan nan nan nan nan nan nan nan nan nan nan nan nan nan nan nan nan nan nan nan nan nan nan nan nan nan nan nan nan nan nan nan nan nan nan nan nan nan nan nan nan nan nan nan nan nan nan nan nan nan 21 21 20 nan
16 17 18 20 nan nan 19 18 17 15 15 17 18 20 20 20 20 21 22 nan nan nan nan nan nan nan nan nan nan nan nan nan nan nan nan nan nan nan nan nan nan nan nan nan nan nan nan nan nan nan nan nan nan nan nan nan nan nan nan nan nan nan nan nan nan nan nan nan nan nan nan nan nan nan nan nan nan nan nan nan nan 13 nan nan nan
15 16 18 19 19 18 17 17 16 16 17 18 19 19 20 21 22 22 20 19 nan nan nan nan nan nan nan nan nan nan nan nan nan nan nan nan nan nan nan nan nan nan nan nan nan nan nan nan nan nan nan nan nan nan nan nan nan nan nan nan nan nan nan nan nan nan nan nan nan nan nan nan nan nan nan nan nan nan nan nan nan nan nan nan nan
20 17 18 18 19 20 21 22 22 22 21 20 20 20 20 21 21 21 20 18 nan nan nan nan nan nan nan nan nan nan nan nan nan nan nan nan nan nan nan nan nan nan nan nan nan nan nan nan nan nan nan nan nan nan nan nan nan nan nan nan nan nan nan nan nan nan nan nan nan nan nan nan nan nan nan nan nan nan nan nan nan nan nan nan nan
nan nan nan 19 18 19 20 21 22 21 19 19 19 18 18 19 21 21 20 19 20 nan nan nan nan nan nan nan nan nan nan nan nan nan nan nan nan nan nan nan nan nan nan nan nan nan nan nan nan nan nan nan nan nan nan nan nan nan nan nan nan nan nan nan nan nan nan nan nan nan nan nan nan nan nan nan nan nan nan nan nan nan nan nan nan
nan nan nan nan 23 24 23 23 23 21 18 18 18 18 18 19 21 23 21 20 20 21 nan nan nan nan nan nan nan nan nan nan nan nan nan nan nan nan nan nan nan nan nan nan nan nan nan nan nan nan nan nan nan nan nan nan nan nan nan nan nan nan nan nan nan nan nan nan nan nan nan nan nan nan nan nan nan nan nan nan nan nan nan nan nan
nan nan nan nan 29 27 24 22 20 20 20 19 18 17 18 19 22 24 23 19 17 18 nan nan nan nan nan nan nan nan nan nan nan nan nan nan nan nan nan nan nan nan nan nan nan nan nan nan nan nan nan nan nan nan nan nan nan nan nan nan nan nan nan nan nan nan nan nan nan nan nan nan nan nan nan nan nan nan nan nan nan nan nan nan nan
nan nan nan nan 22 22 24 23 22 21 20 20 19 18 18 19 21 22 20 15 15 19 20 nan nan nan nan nan nan nan nan nan nan nan nan nan nan nan nan nan nan nan nan nan nan nan nan nan nan nan nan nan nan nan nan nan nan nan nan nan nan nan nan nan nan nan nan nan nan nan nan nan nan nan nan nan nan nan nan nan nan nan nan nan nan
nan 21 20 20 20 20 20 19 18 19 19 19 19 20 20 21 22 22 19 16 18 24 25 23 nan nan nan nan nan nan nan nan nan nan nan nan nan nan nan nan nan nan nan nan nan nan nan nan nan nan nan nan nan nan nan nan nan nan nan nan nan nan nan nan nan nan nan nan nan nan nan nan nan nan nan nan nan nan nan nan nan nan nan nan nan
nan nan nan 21 19 15 17 19 17 17 19 20 20 19 18 18 19 21 21 20 23 26 26 24 nan nan nan nan nan nan nan nan nan nan nan nan nan nan nan nan nan nan nan nan nan nan nan nan nan nan nan nan nan nan nan nan nan nan nan nan nan nan nan nan nan nan nan nan nan nan nan nan nan nan nan nan nan nan nan nan nan nan nan nan nan
nan 24 20 20 nan 21 19 20 17 16 17 18 19 19 19 18 18 19 19 20 22 24 24 22 22 nan nan nan nan nan nan nan nan nan nan nan nan nan nan nan nan nan nan nan nan nan nan nan nan nan nan nan nan nan nan nan nan nan nan nan nan nan nan nan nan nan nan nan nan nan nan nan nan nan nan nan nan nan nan nan nan nan nan nan nan
26 25 24 22 23 23 22 19 17 17 17 18 18 18 18 17 17 18 19 20 21 22 22 22 22 23 nan nan nan nan nan nan nan nan nan nan nan nan nan nan nan nan nan nan nan nan nan nan nan nan nan nan nan nan nan nan nan nan nan nan nan nan nan nan nan nan nan nan nan nan nan nan nan nan nan nan nan nan nan nan nan nan nan nan nan
25 25 25 22 23 24 22 21 21 20 18 16 16 16 16 16 16 17 19 19 18 19 21 21 22 23 nan nan nan nan nan nan nan nan nan nan nan nan nan nan nan nan nan nan nan nan nan nan nan nan nan nan nan nan nan nan nan nan nan nan nan nan nan nan nan nan nan nan nan nan nan nan nan nan nan nan nan nan nan nan nan nan nan nan nan
23 24 21 21 20 21 25 22 20 21 20 17 17 17 16 16 16 16 18 19 18 18 18 19 20 23 nan nan nan nan nan nan nan nan nan nan nan nan nan nan nan nan nan nan nan nan nan nan nan nan nan nan nan nan nan nan nan nan nan nan nan nan nan nan nan nan nan nan nan nan nan nan nan nan nan nan nan nan nan nan nan nan nan nan nan
nan 21 21 17 19 18 18 21 21 20 20 18 18 18 16 14 13 14 16 17 17 nan 17 18 19 21 nan nan nan nan nan nan nan nan nan nan nan nan nan nan nan nan nan nan nan nan nan nan nan nan nan nan nan nan nan nan nan nan nan nan nan nan nan nan nan nan nan nan nan nan nan nan nan nan nan nan nan nan nan nan nan nan nan nan nan
nan 21 20 19 18 19 17 14 14 17 18 18 15 13 11 10 11 12 12 15 15 16 nan nan 19 20 nan nan nan nan nan nan nan nan nan nan nan nan nan nan nan nan nan nan nan nan nan nan nan nan nan nan nan nan nan nan nan nan nan nan nan nan nan nan nan nan nan nan nan nan nan nan nan nan nan nan nan nan nan nan nan nan nan nan nan
nan nan nan 19 20 18 17 14 13 15 17 18 17 16 15 13 12 12 11 13 15 nan nan nan 17 19 19 18 19 20 21 nan nan nan nan nan nan nan nan nan nan nan nan nan nan nan nan nan nan nan nan nan nan nan nan nan nan nan nan nan nan nan nan nan nan nan nan nan nan nan nan nan nan nan nan nan nan nan nan nan nan nan nan nan nan
nan 17 17 18 18 17 15 14 13 17 17 17 17 18 16 15 14 12 11 11 13 nan nan nan 16 17 17 17 18 19 20 21 21 nan nan nan nan nan nan nan nan nan nan nan nan nan nan nan nan nan nan nan nan nan nan nan nan nan nan nan nan nan nan nan nan nan nan nan nan nan nan nan nan nan nan nan nan nan nan nan nan nan nan nan nan
nan 13 15 15 16 16 15 17 16 15 17 18 20 20 18 16 15 13 13 12 13 13 nan nan nan nan 16 16 16 17 19 20 20 nan nan nan nan nan nan nan nan nan nan nan nan nan nan nan nan nan nan nan nan nan nan nan nan nan nan nan nan nan nan nan nan nan nan nan nan nan nan nan nan nan nan nan nan nan nan nan nan nan nan nan nan
nan nan 13 15 15 17 19 21 20 18 17 21 22 23 21 18 16 15 14 13 13 13 14 nan nan nan nan 16 15 16 17 19 19 18 nan nan nan nan nan nan nan nan nan nan nan nan nan nan nan nan nan nan nan nan nan nan nan nan nan nan nan nan nan nan nan nan nan nan nan nan nan nan nan nan nan nan nan nan nan nan nan nan nan nan nan
nan nan nan nan nan 19 19 22 23 21 19 22 24 25 23 21 19 18 16 13 13 14 13 12 14 nan nan 17 16 18 19 19 20 19 18 nan nan nan nan nan nan nan nan nan nan nan nan nan nan nan nan nan nan nan nan nan nan nan nan nan nan nan nan nan nan nan nan nan nan nan nan nan nan nan nan nan nan nan nan nan nan nan nan nan nan
nan nan nan nan nan nan 19 20 21 22 23 24 26 25 23 22 22 21 17 15 16 18 nan 20 21 20 17 16 15 18 20 19 20 20 20 18 nan nan nan nan nan nan nan nan nan nan nan nan nan nan nan nan nan nan nan nan nan nan nan nan nan nan nan nan nan nan nan nan nan nan nan nan nan nan nan nan nan nan nan nan nan nan nan nan nan
nan nan nan nan nan nan nan nan nan 21 23 26 27 26 24 24 24 21 20 24 21 19 20 22 24 nan 23 19 14 12 16 18 19 21 21 20 18 18 nan nan nan nan nan nan nan nan nan nan nan nan nan nan nan nan nan nan nan nan nan nan nan nan nan nan nan nan nan nan nan nan nan nan nan nan nan nan nan nan nan nan nan nan nan nan nan
nan nan nan nan nan nan nan nan nan nan 23 25 28 28 27 26 26 22 27 27 25 24 24 23 23 24 nan nan nan nan 22 21 21 22 23 23 22 21 19 nan nan nan nan nan nan nan nan nan nan nan nan nan nan nan nan nan nan nan nan nan nan nan nan nan nan nan nan nan nan nan nan nan nan nan nan nan nan nan nan nan nan nan nan nan nan
nan nan nan nan nan nan nan nan nan nan 24 25 28 28 28 29 25 26 32 29 29 28 nan nan nan 19 18 nan nan nan nan 21 23 24 23 24 24 23 21 nan nan nan nan nan nan nan nan nan nan nan nan nan nan nan nan nan nan nan nan nan nan nan nan nan nan nan nan nan nan nan nan nan nan nan nan nan nan nan nan nan nan nan nan nan nan
nan nan nan nan nan nan nan nan nan nan nan 26 26 27 29 28 25 31 33 32 30 29 27 24 21 19 18 nan 21 nan nan 18 21 24 24 23 24 24 22 nan nan nan nan nan nan nan nan nan nan nan nan nan nan nan nan nan nan nan nan nan nan nan nan nan nan nan nan nan nan nan nan nan nan nan nan nan nan nan nan nan nan nan nan nan nan
nan nan nan nan nan nan nan nan nan nan nan nan 28 29 28 27 27 30 32 32 33 30 27 25 23 21 21 21 21 nan nan nan nan 22 23 24 25 23 21 20 nan nan nan nan nan nan nan nan nan nan nan nan nan nan nan nan nan nan nan nan nan nan nan nan nan nan nan nan nan nan nan nan nan nan nan nan nan nan nan nan nan nan nan nan nan
nan nan nan nan nan nan nan nan nan nan nan nan nan 28 26 25 27 28 30 32 32 nan 26 25 24 23 22 21 20 20 nan nan nan 22 22 23 23 23 22 nan nan nan nan nan nan nan nan nan nan nan nan nan nan nan nan nan nan nan nan nan nan nan nan nan nan nan nan nan nan nan nan nan nan nan nan nan nan nan nan nan nan nan nan nan nan
nan nan nan nan nan nan nan nan nan nan nan nan nan nan 23 24 26 nan nan nan 32 30 27 25 24 25 24 22 20 20 nan nan 23 nan nan nan 23 23 nan nan nan nan nan nan nan nan nan nan nan nan nan nan nan nan nan nan nan nan nan nan nan nan nan nan nan nan nan nan nan nan nan nan nan nan nan nan nan nan nan nan nan nan nan nan nan
nan nan nan nan nan nan nan nan nan nan nan nan 34 nan nan nan 25 30 nan nan nan 30 29 28 27 27 25 24 23 23 24 24 24 23 nan nan nan nan nan nan nan nan nan nan nan nan nan nan nan nan nan nan nan nan nan nan nan nan nan nan nan nan nan nan nan nan nan nan nan nan nan nan nan nan nan nan nan nan nan nan nan nan nan nan nan
nan nan nan nan nan nan nan nan nan nan nan nan nan 36 nan nan nan nan nan nan nan nan 30 30 30 29 27 27 25 24 24 24 24 23 22 20 17 20 nan nan nan nan nan nan nan nan nan nan nan nan nan nan nan nan nan nan nan nan nan nan nan nan nan nan nan nan nan nan nan nan nan nan nan nan nan nan nan nan nan nan nan nan nan nan nan
nan nan nan nan nan nan nan nan nan nan nan nan nan nan 37 nan 35 34 nan nan nan nan nan 30 32 30 30 nan nan nan nan 24 23 23 22 21 21 18 14 nan nan nan nan nan nan nan nan nan nan nan nan nan nan nan nan nan nan nan nan nan nan nan nan nan nan nan nan nan nan nan nan nan nan nan nan nan nan nan nan nan nan nan nan nan nan
Wind_Direction
307 296 291 284 286 283 279 284 292 296 304 301 nan nan nan nan nan nan nan nan nan nan nan nan nan nan nan nan 296 nan 315 nan nan nan nan nan nan nan nan nan nan nan 283 nan nan 277 nan nan nan nan nan 265 nan nan nan nan nan nan nan nan nan nan nan nan nan nan nan nan nan nan nan 268 269 263 nan 256 262 262 263 261 262 259 259 264 262
303 288 278 265 255 262 262 277 287 291 297 289 nan nan nan nan nan nan nan nan nan nan nan nan nan nan nan nan nan nan 310 nan nan nan nan nan nan nan nan nan nan nan 279 nan nan nan nan nan nan nan nan nan nan nan nan nan nan nan nan nan nan nan nan nan nan nan nan nan 253 248 nan nan 261 261 253 255 262 257 254 257 nan 260 261 259 253
311 303 286 269 261 251 250 263 273 291 292 284 279 260 nan nan nan nan nan nan nan nan nan nan nan nan nan nan nan nan nan nan nan 304 293 nan nan nan nan nan nan nan nan 277 281 nan nan nan nan nan nan nan nan nan nan nan nan nan nan nan nan nan nan nan nan nan nan nan nan nan 247 nan 244 245 247 250 255 251 nan 251 251 252 256 255 253
322 308 290 263 256 254 247 254 267 273 277 275 264 264 nan nan nan nan nan nan nan 290 nan nan nan nan nan nan nan nan nan 286 nan nan nan nan nan nan nan nan nan nan nan nan nan nan nan nan nan nan nan nan nan nan nan nan nan nan nan nan nan nan nan nan nan nan nan nan nan nan 249 252 246 240 244 240 nan nan 244 247 250 248 249 250 253
327 312 292 268 247 239 240 237 250 264 264 274 269 266 269 nan nan nan nan nan nan 283 nan 288 276 nan nan nan nan nan nan nan nan nan 286 298 nan nan nan nan nan nan nan nan nan nan nan nan nan nan nan nan nan 285 283 280 276 nan nan nan 262 nan nan nan nan nan 240 244 nan 245 nan 242 246 244 249 nan nan 242 237 242 246 247 246 247 250
336 330 313 280 253 232 227 229 242 249 249 257 266 269 269 271 nan 270 nan nan nan nan nan nan 261 nan nan 270 nan nan nan nan nan nan nan nan nan nan nan nan nan nan nan nan nan nan nan nan nan nan nan 284 285 289 288 284 279 275 nan 272 266 263 nan nan 254 nan 242 238 243 246 nan nan 251 245 247 244 nan nan 238 239 241 241 246 247 249
338 321 306 296 262 230 215 225 237 242 222 232 249 264 267 nan nan nan nan 278 nan nan nan 268 nan nan nan nan 303 nan nan nan nan nan nan nan nan nan nan nan nan nan nan nan nan nan nan nan nan nan nan nan 286 nan nan 283 283 280 277 271 267 266 nan nan nan nan 243 240 239 241 244 243 246 249 248 249 244 235 239 243 243 243 242 246 249
360 350 346 1 357 281 235 227 237 239 218 220 238 255 261 nan nan nan nan 273 nan nan nan 276 nan nan nan nan nan nan nan nan nan nan nan nan nan nan nan nan nan nan nan nan nan nan nan nan nan 284 284 283 284 nan nan 280 278 277 279 277 272 266 262 264 nan nan 255 246 240 244 247 245 243 246 249 254 251 249 244 242 242 242 242 241 245
14 14 18 22 26 20 257 238 219 211 210 213 223 247 250 nan nan nan nan 268 nan nan nan nan 288 nan nan nan nan nan nan nan nan 295 nan nan nan nan nan nan nan nan nan nan nan nan nan nan nan nan nan nan 281 nan nan nan nan 276 273 272 272 267 264 263 262 nan 252 249 246 244 246 246 245 245 247 250 252 252 247 248 250 246 246 244 245
27 28 31 31 33 32 27 216 204 177 166 169 200 236 250 nan nan nan 263 nan nan nan nan nan 284 nan nan nan nan nan nan nan nan nan nan nan nan nan nan nan nan nan nan nan nan nan nan nan nan nan nan 280 280 nan nan nan nan 274 274 274 273 270 266 263 262 258 256 250 247 247 247 246 246 246 247 251 251 252 nan nan 254 256 255 249 252
25 31 39 41 41 34 32 50 87 135 146 155 204 247 257 nan nan nan nan nan nan nan nan nan nan nan nan nan nan nan nan nan nan nan nan nan nan nan nan nan nan nan nan nan nan nan nan 288 nan 286 284 282 279 nan nan nan nan nan nan 273 271 270 267 263 258 255 254 252 251 250 248 250 252 252 253 253 258 259 258 259 259 258 262 261 255
22 23 29 32 35 40 33 46 58 81 97 75 242 253 273 nan nan nan nan nan nan nan nan nan nan nan nan nan nan nan nan nan nan nan nan nan nan nan nan nan nan nan nan nan nan nan nan nan nan nan 284 nan nan nan nan nan nan nan nan nan nan nan nan 264 259 253 250 nan 251 250 251 250 249 252 252 255 259 262 265 268 268 268 265 266 269
17 20 20 22 26 29 32 41 43 35 11 2 341 314 308 307 nan nan nan nan nan nan nan nan nan nan nan nan nan nan nan nan nan nan nan nan nan nan nan nan nan nan nan nan nan nan nan nan nan 285 284 283 282 nan nan nan nan nan nan nan nan nan nan nan nan nan 251 249 248 nan nan 248 248 250 253 255 254 258 265 268 265 267 274 275 270
15 18 19 20 23 28 27 27 24 18 15 5 353 335 322 317 nan nan nan nan nan nan nan nan nan nan nan nan nan nan nan nan nan nan nan nan nan nan nan nan nan nan nan nan nan nan nan nan nan nan nan nan 283 nan nan nan nan nan nan nan nan nan nan nan nan nan 252 248 nan nan nan nan nan 248 251 254 258 260 262 267 267 263 268 271 269
5 10 14 16 18 17 15 10 5 358 359 359 350 342 327 323 nan nan nan nan nan nan nan nan nan nan nan nan nan nan nan nan nan nan nan nan nan nan nan nan nan nan nan nan nan nan nan nan nan nan 281 nan nan nan nan nan nan nan nan nan nan nan nan nan nan nan nan nan nan nan nan nan nan 245 249 251 255 257 263 268 272 273 266 267 nan
358 360 5 12 14 12 4 360 356 347 349 348 347 339 332 330 326 nan nan nan nan nan nan nan nan nan nan nan nan nan nan nan nan nan nan nan nan nan nan nan nan nan nan nan nan nan nan nan nan nan nan nan nan nan nan nan nan nan nan nan nan nan nan nan nan nan nan nan nan nan nan nan nan nan 244 247 250 255 261 264 269 273 279 274 270
3 5 4 3 2 2 1 353 346 337 338 341 339 333 331 325 323 nan nan nan nan nan nan nan nan nan nan nan nan nan nan nan nan nan nan nan nan nan nan nan nan nan nan nan nan nan nan nan nan nan nan nan nan nan nan nan nan nan nan nan nan nan nan nan nan nan nan nan nan nan nan nan nan nan 244 245 250 255 257 264 271 278 277 280 nan
11 11 5 2 360 356 348 341 337 332 330 328 330 323 321 319 322 325 nan nan nan nan nan nan nan nan nan nan nan nan nan nan nan nan nan nan nan nan nan nan nan nan nan nan nan nan nan 286 nan nan nan nan nan nan nan nan nan nan nan nan nan nan nan nan nan nan nan nan nan nan nan nan nan nan nan 244 249 255 259 261 267 273 281 283 nan
3 10 11 8 6 1 351 345 335 328 329 329 323 317 312 312 319 324 nan nan nan nan nan nan nan nan nan nan nan nan nan nan nan nan nan nan nan nan nan nan nan nan nan nan nan nan nan nan nan nan nan nan nan nan nan nan nan nan nan nan nan nan nan nan nan nan nan nan nan nan nan nan nan nan nan nan nan nan nan nan 266 273 279 279 282
2 7 nan 10 8 5 360 351 342 337 333 328 324 317 318 318 317 320 318 nan nan nan nan nan nan nan nan nan nan nan nan nan nan nan nan nan nan nan nan nan nan nan nan nan nan nan nan nan nan nan nan nan nan nan nan nan nan nan nan nan nan nan nan nan nan nan nan nan nan nan nan nan nan nan nan nan nan nan nan nan nan 275 276 278 nan
360 3 3 1 nan nan 360 355 350 339 327 321 321 325 324 316 317 318 320 nan nan nan nan nan nan nan nan nan nan nan nan nan nan nan nan nan nan nan nan nan nan nan nan nan nan nan nan nan nan nan nan nan nan nan nan nan nan nan nan nan nan nan nan nan nan nan nan nan nan nan nan nan nan nan nan nan nan nan nan nan nan 274 nan nan nan
354 355 354 349 346 349 349 344 335 329 328 328 326 323 322 322 321 318 315 316 nan nan nan nan nan nan nan nan nan nan nan nan nan nan nan nan nan nan nan nan nan nan nan nan nan nan nan nan nan nan nan nan nan nan nan nan nan nan nan nan nan nan nan nan nan nan nan nan nan nan nan nan nan nan nan nan nan nan nan nan nan nan nan nan nan
342 340 341 341 340 340 339 338 337 336 333 329 324 327 328 327 322 318 317 318 nan nan nan nan nan nan nan nan nan nan nan nan nan nan nan nan nan nan nan nan nan nan nan nan nan nan nan nan nan nan nan nan nan nan nan nan nan nan nan nan nan nan nan nan nan nan nan nan nan nan nan nan nan nan nan nan nan nan nan nan nan nan nan nan nan
nan nan nan 335 333 327 324 327 330 331 329 328 327 327 326 325 324 318 318 315 310 nan nan nan nan nan nan nan nan nan nan nan nan nan nan nan nan nan nan nan nan nan nan nan nan nan nan nan nan nan nan nan nan nan nan nan nan nan nan nan nan nan nan nan nan nan nan nan nan nan nan nan nan nan nan nan nan nan nan nan nan nan nan nan nan
nan nan nan nan 326 326 329 328 329 332 332 329 329 332 328 328 326 325 317 307 309 313 nan nan nan nan nan nan nan nan nan nan nan nan nan nan nan nan nan nan nan nan nan nan nan nan nan nan nan nan nan nan nan nan nan nan nan nan nan nan nan nan nan nan nan nan nan nan nan nan nan nan nan nan nan nan nan nan nan nan nan nan nan nan nan
nan nan nan nan 337 339 336 333 332 333 334 331 331 331 328 326 332 329 318 301 306 316 nan nan nan nan nan nan nan nan nan nan nan nan nan nan nan nan nan nan nan nan nan nan nan nan nan nan nan nan nan nan nan nan nan nan nan nan nan nan nan nan nan nan nan nan nan nan nan nan nan nan nan nan nan nan nan nan nan nan nan nan nan nan nan
nan nan nan nan 331 344 347 342 337 331 329 329 329 329 327 327 332 335 328 309 305 318 325 nan nan nan nan nan nan nan nan nan nan nan nan nan nan nan nan nan nan nan nan nan nan nan nan nan nan nan nan nan nan nan nan nan nan nan nan nan nan nan nan nan nan nan nan nan nan nan nan nan nan nan nan nan nan nan nan nan nan nan nan nan nan
nan 306 309 318 333 341 339 331 320 320 322 323 325 328 330 331 337 339 336 319 304 312 318 319 nan nan nan nan nan nan nan nan nan nan nan nan nan nan nan nan nan nan nan nan nan nan nan nan nan nan nan nan nan nan nan nan nan nan nan nan nan nan nan nan nan nan nan nan nan nan nan nan nan nan nan nan nan nan nan nan nan nan nan nan nan
nan nan nan 313 315 322 319 310 315 309 315 319 321 326 329 334 336 338 334 329 316 315 314 312 nan nan nan nan nan nan nan nan nan nan nan nan nan nan nan nan nan nan nan nan nan nan nan nan nan nan nan nan nan nan nan nan nan nan nan nan nan nan nan nan nan nan nan nan nan nan nan nan nan nan nan nan nan nan nan nan nan nan nan nan nan
nan 298 298 304 nan 313 315 315 312 311 309 314 320 325 331 336 339 334 330 325 319 321 318 313 313 nan nan nan nan nan nan nan nan nan nan nan nan nan nan nan nan nan nan nan nan nan nan nan nan nan nan nan nan nan nan nan nan nan nan nan nan nan nan nan nan nan nan nan nan nan nan nan nan nan nan nan nan nan nan nan nan nan nan nan nan
297 295 290 291 304 310 308 312 312 306 316 323 324 324 328 334 334 329 327 326 324 323 324 322 320 319 nan nan nan nan nan nan nan nan nan nan nan nan nan nan nan nan nan nan nan nan nan nan nan nan nan nan nan nan nan nan nan nan nan nan nan nan nan nan nan nan nan nan nan nan nan nan nan nan nan nan nan nan nan nan nan nan nan nan nan
294 294 291 292 302 309 310 314 316 313 313 318 317 317 321 334 331 330 324 319 325 326 329 329 324 320 nan nan nan nan nan nan nan nan nan nan nan nan nan nan nan nan nan nan nan nan nan nan nan nan nan nan nan nan nan nan nan nan nan nan nan nan nan nan nan nan nan nan nan nan nan nan nan nan nan nan nan nan nan nan nan nan nan nan nan
294 289 290 296 300 310 316 319 311 308 310 319 319 314 331 335 333 330 312 321 330 331 329 327 322 322 nan nan nan nan nan nan nan nan nan nan nan nan nan nan nan nan nan nan nan nan nan nan nan nan nan nan nan nan nan nan nan nan nan nan nan nan nan nan nan nan nan nan nan nan nan nan nan nan nan nan nan nan nan nan nan nan nan nan nan
nan 294 292 290 292 292 307 319 319 314 318 317 315 328 339 338 332 316 320 325 332 nan 330 326 319 321 nan nan nan nan nan nan nan nan nan nan nan nan nan nan nan nan nan nan nan nan nan nan nan nan nan nan nan nan nan nan nan nan nan nan nan nan nan nan nan nan nan nan nan nan nan nan nan nan nan nan nan nan nan nan nan nan nan nan nan
nan 298 298 297 291 288 293 306 313 315 306 303 311 321 315 304 307 324 320 321 332 334 nan nan 318 317 nan nan nan nan nan nan nan nan nan nan nan nan nan nan nan nan nan nan nan nan nan nan nan nan nan nan nan nan nan nan nan nan nan nan nan nan nan nan nan nan nan nan nan nan nan nan nan nan nan nan nan nan nan nan nan nan nan nan nan
nan nan nan 302 297 296 298 308 311 304 305 311 324 322 319 324 313 326 322 323 329 nan nan nan 315 315 319 323 326 324 319 nan nan nan nan nan nan nan nan nan nan nan nan nan nan nan nan nan nan nan nan nan nan nan nan nan nan nan nan nan nan nan nan nan nan nan nan nan nan nan nan nan nan nan nan nan nan nan nan nan nan nan nan nan nan
nan 303 300 301 301 300 301 300 297 308 308 316 313 308 315 311 312 317 314 316 321 nan nan nan 321 320 321 323 325 323 320 318 317 nan nan nan nan nan nan nan nan nan nan nan nan nan nan nan nan nan nan nan nan nan nan nan nan nan nan nan nan nan nan nan nan nan nan nan nan nan nan nan nan nan nan nan nan nan nan nan nan nan nan nan nan
nan 279 287 288 291 292 295 299 295 296 307 304 301 303 304 305 311 305 303 307 315 326 nan nan nan nan 321 321 323 321 319 318 319 nan nan nan nan nan nan nan nan nan nan nan nan nan nan nan nan nan nan nan nan nan nan nan nan nan nan nan nan nan nan nan nan nan nan nan nan nan nan nan nan nan nan nan nan nan nan nan nan nan nan nan nan
nan nan 279 277 288 297 294 293 291 292 295 298 297 299 299 303 301 300 299 305 311 312 320 nan nan nan nan 314 318 321 319 318 322 327 nan nan nan nan nan nan nan nan nan nan nan nan nan nan nan nan nan nan nan nan nan nan nan nan nan nan nan nan nan nan nan nan nan nan nan nan nan nan nan nan nan nan nan nan nan nan nan nan nan nan nan
nan nan nan nan nan 280 286 290 295 298 292 290 292 291 292 293 293 293 298 303 307 307 304 300 300 nan nan 310 308 314 316 317 320 319 323 nan nan nan nan nan nan nan nan nan nan nan nan nan nan nan nan nan nan nan nan nan nan nan nan nan nan nan nan nan nan nan nan nan nan nan nan nan nan nan nan nan nan nan nan nan nan nan nan nan nan
nan nan nan nan nan nan 289 291 291 292 294 290 289 288 289 289 290 290 300 294 288 288 nan 295 294 297 302 304 302 311 316 313 310 313 314 312 nan nan nan nan nan nan nan nan nan nan nan nan nan nan nan nan nan nan nan nan nan nan nan nan nan nan nan nan nan nan nan nan nan nan nan nan nan nan nan nan nan nan nan nan nan nan nan nan nan
nan nan nan nan nan nan nan nan nan 285 292 293 294 294 292 289 288 294 291 278 289 290 284 283 287 nan 282 273 262 287 310 309 304 301 300 303 305 308 nan nan nan nan nan nan nan nan nan nan nan nan nan nan nan nan nan nan nan nan nan nan nan nan nan nan nan nan nan nan nan nan nan nan nan nan nan nan nan nan nan nan nan nan nan nan nan
nan nan nan nan nan nan nan nan nan nan 287 291 294 297 295 292 293 298 286 286 285 286 284 282 285 292 nan nan nan nan 315 308 305 307 304 301 298 301 304 nan nan nan nan nan nan nan nan nan nan nan nan nan nan nan nan nan nan nan nan nan nan nan nan nan nan nan nan nan nan nan nan nan nan nan nan nan nan nan nan nan nan nan nan nan nan
nan nan nan nan nan nan nan nan nan nan 281 282 288 291 291 293 299 291 284 286 286 285 nan nan nan 291 300 nan nan nan nan 302 304 304 303 300 298 299 301 nan nan nan nan nan nan nan nan nan nan nan nan nan nan nan nan nan nan nan nan nan nan nan nan nan nan nan nan nan nan nan nan nan nan nan nan nan nan nan nan nan nan nan nan nan nan
nan nan nan nan nan nan nan nan nan nan nan 286 285 289 289 291 287 283 287 290 287 286 289 291 292 291 292 nan 275 nan nan 290 295 299 301 300 298 297 299 nan nan nan nan nan nan nan nan nan nan nan nan nan nan nan nan nan nan nan nan nan nan nan nan nan nan nan nan nan nan nan nan nan nan nan nan nan nan nan nan nan nan nan nan nan nan
nan nan nan nan nan nan nan nan nan nan nan nan 286 286 289 286 281 284 288 289 288 289 290 292 291 287 282 280 283 nan nan nan nan 289 298 299 301 301 300 295 nan nan nan nan nan nan nan nan nan nan nan nan nan nan nan nan nan nan nan nan nan nan nan nan nan nan nan nan nan nan nan nan nan nan nan nan nan nan nan nan nan nan nan nan nan
nan nan nan nan nan nan nan nan nan nan nan nan nan 283 286 285 284 283 284 285 287 nan 290 285 285 283 276 275 282 278 nan nan nan 281 284 287 291 295 296 nan nan nan nan nan nan nan nan nan nan nan nan nan nan nan nan nan nan nan nan nan nan nan nan nan nan nan nan nan nan nan nan nan nan nan nan nan nan nan nan nan nan nan nan nan nan
nan nan nan nan nan nan nan nan nan nan nan nan nan nan 279 282 280 nan nan nan 286 289 289 286 287 281 278 279 280 287 nan nan 280 nan nan nan 283 288 nan nan nan nan nan nan nan nan nan nan nan nan nan nan nan nan nan nan nan nan nan nan nan nan nan nan nan nan nan nan nan nan nan nan nan nan nan nan nan nan nan nan nan nan nan nan nan
nan nan nan nan nan nan nan nan nan nan nan nan 269 nan nan nan 272 270 nan nan nan 287 288 288 287 282 281 282 283 279 279 279 280 281 nan nan nan nan nan nan nan nan nan nan nan nan nan nan nan nan nan nan nan nan nan nan nan nan nan nan nan nan nan nan nan nan nan nan nan nan nan nan nan nan nan nan nan nan nan nan nan nan nan nan nan
nan nan nan nan nan nan nan nan nan nan nan nan nan 267 nan nan nan nan nan nan nan nan 282 285 285 286 285 283 279 276 277 278 280 281 281 275 281 299 nan nan nan nan nan nan nan nan nan nan nan nan nan nan nan nan nan nan nan nan nan nan nan nan nan nan nan nan nan nan nan nan nan nan nan nan nan nan nan nan nan nan nan nan nan nan nan
nan nan nan nan nan nan nan nan nan nan nan nan nan nan 263 nan 264 267 nan nan nan nan nan 278 282 283 288 nan nan nan nan 277 278 281 282 287 283 278 286 nan nan nan nan nan nan nan nan nan nan nan nan nan nan nan nan nan nan nan nan nan nan nan nan nan nan nan nan nan nan nan nan nan nan nan nan nan nan nan nan nan nan nan nan nan nan